Find Starlink 31502

NORAD ID: 59301 Int'l Des: 2024-056 Owner: SPXS Country: US Constellation: starlink operational
LEOCIRCULAR

当前视图

正在加载3D地球...

About Starlink 31502

Starlink 31502 (NORAD 59301) is a starlink constellation satellite (v2 mini) launched Mar 24, 2024 by SPXS of US. It operates in LEO, CIRCULAR orbit with a mass of 730.00 kg.

关于 Starlink 31502

正在加载描述...

即将过境

Passes for default location (London). Set your location on the main map for personalized predictions.

高度历史

Loading altitude history...

两行轨道根数

1 59301U 24056F 26178.11814818 .00002559 00000-0 10253-3 0 9996
2 59301 43.0044 325.4746 0001123 282.1758 77.8968 15.27566637127975
Epoch: Jun 27, 2026 • Age: 11 hours

当前状态

高度 483.1 km
速度 7.63 km/s
星下点 23.87°N, 134.36°W
发射日期 Mar 24, 2024
运行时间 2.2 years
类型 internet

技术详情

分类 Payload
质量 730.00 kg
干质量 700.00 kg
总质量 730.00 kg
长度 0.30 m
直径 4.10 m
跨度 29.00 m
形状 Box + pan
制造商 SPXS
平台类型 Starlink V2M
阶段状态 In Orbit
所有者/国家 SPXS/US

Most Searched